This demonstration page uses our WeatherBlox Daily Observations layout. Learn more.

Left ArrowRight Arrow

39.92423, -83.80882

Hourly Observations for March 31, 2017

Temp ( °F °C ) Dew Point ( °F °C ) Humidity (%) Winds ( mph kmh ) Pressure ( in mb ) Visibility ( mi km ) Precip ( " mm )
12:26 am 00:26 Cloudy with Light Rain 55 13 52 11 88 88 Calm 29.68 1005 10 16.0934 0.07 1.778
12:39 am 00:39 Cloudy with Rain 55 13 54 12 94 94 E 5 7 29.68 1005 6 9.65604 0.08 2.032
12:52 am 00:52 Cloudy with Light Rain 55 13 54 12 94 94 E 7 11 29.68 1005 8 12.87472 0.1 2.54
12:56 am 00:56 Cloudy with Light Rain 55 12.8 53 11.7 93 93 E 6 9 29.67 1005 9 14.48406 0.1 2.54
1:15 am 01:15 Cloudy with Rain 54 12 54 12 100 100 Calm 29.68 1005 4 6.43736 0.06 1.524
1:56 am 01:56 Cloudy with Rain 54 12.2 53 11.7 97 97 SSE 6 9 29.68 1005 8 12.87472 0.17 4.318
2:24 am 02:24 Cloudy with Light Rain 54 12 54 12 100 100 E 6 9 29.65 1004 7 11.26538 0.06 1.524
2:47 am 02:47 Cloudy with Light Rain 54 12 54 12 100 100 ESE 8 13 29.65 1004 6 9.65604 0.07 1.778
2:56 am 02:56 Cloudy with Light Rain 54 12.2 53 11.7 97 97 ESE 7 11 29.63 1004 5 8.0467 0.09 2.286
3:56 am 03:56 Cloudy with Light Rain 54 12.2 53 11.7 97 97 E 8 13 29.6 1002 8 12.87472 0.06 1.524
4:56 am 04:56 Cloudy 54 12.2 53 11.7 97 97 ESE 9 15 29.59 1002 10 16.0934 0.01 0.254
5:56 am 05:56 Cloudy 54 12.2 53 11.7 97 97 SE 10 17 29.6 1002 10 16.0934 0 0
6:12 am 06:12 Cloudy 54 12 54 12 100 100 SE 10 17 29.62 1003 9 14.48406 0 0
6:56 am 06:56 Mostly Cloudy 54 12.2 53 11.7 97 97 SE 13 20 29.58 1002 10 16.0934 0 0
7:56 am 07:56 Cloudy with Light Rain 55 12.8 53 11.7 93 93 ESE 14 22 29.57 1001 10 16.0934 0.01 0.254
8:56 am 08:56 Mostly Cloudy 55 12.8 53 11.7 93 93 SE 9 15 29.6 1002 10 16.0934 0 0.0254
9:56 am 09:56 Cloudy 57 13.9 54 12.2 90 90 SSE 8 13 29.58 1002 10 16.0934 0 0
10:19 am 10:19 Cloudy 57 14 54 12 88 88 S 5 7 29.56 1001 10 16.0934 0 0
10:28 am 10:28 Cloudy 57 14 54 12 88 88 SSE 7 11 29.56 1001 10 16.0934 0 0
10:43 am 10:43 Cloudy 57 14 54 12 88 88 SSW 9 15 29.56 1001 10 16.0934 0 0
10:52 am 10:52 Cloudy with Rain 55 13 54 12 94 94 SSW 12 19 29.59 1002 6 9.65604 0.02 0.508
10:56 am 10:56 Cloudy with Light Rain 55 12.8 53 11.7 93 93 SW 12 19 29.6 1002 7 11.26538 0.02 0.508
11:06 am 11:06 Cloudy with Light Rain 54 12 54 12 100 100 SW 10 17 29.59 1002 4 6.43736 0.01 0.254
11:43 am 11:43 Cloudy 55 13 52 11 88 88 WSW 15 24 29.62 1003 10 16.0934 0.01 0.254
11:56 am 11:56 Cloudy 54 12.2 52 11.1 93 93 W 13 20 29.63 1003 10 16.0934 0.01 0.254
12:56 pm 12:56 Cloudy 54 12.2 50 10 87 87 W 16 26 29.64 1004 9 14.48406 0 0
1:10 pm 13:10 Cloudy 54 12 50 10 88 88 WSW 13 20 29.65 1004 7 11.26538 0 0
1:56 pm 13:56 Cloudy with Light Rain 54 12.2 51 10.6 90 90 W 18 30 29.65 1004 9 14.48406 0 0.0254
2:25 pm 14:25 Cloudy 54 12 52 11 94 94 WSW 15 24 29.65 1004 10 16.0934 0 0.0254
2:34 pm 14:34 Cloudy with Light Rain 54 12 52 11 94 94 WSW 17 28 29.65 1004 6 9.65604 0 0.0254
2:56 pm 14:56 Cloudy 54 12.2 51 10.6 90 90 W 21 33 29.65 1004 10 16.0934 0 0.0254
3:03 pm 15:03 Cloudy 55 13 52 11 88 88 WSW 18 30 29.65 1004 8 12.87472 0 0
3:10 pm 15:10 Cloudy with Light Rain 54 12 50 10 88 88 W 23 37 29.65 1004 4 6.43736 0 0.0254
3:23 pm 15:23 Cloudy with Light Rain 54 12 52 11 94 94 W 20 31 29.65 1004 2.5 4.02335 0 0.0254
3:32 pm 15:32 Cloudy with Light Rain 52 11 50 10 94 94 W 18 30 29.65 1004 2.5 4.02335 0 0.0254
3:41 pm 15:41 Cloudy with Light Rain 52 11 50 10 94 94 W 20 31 29.68 1005 2.5 4.02335 0 0.0254
3:48 pm 15:48 Cloudy with Light Rain 52 11 50 10 94 94 W 17 28 29.68 1005 4 6.43736 0 0.0254
3:56 pm 15:56 Cloudy with Light Rain 52 11.1 50 10 93 93 W 18 30 29.68 1005 5 8.0467 0 0.0254
4:09 pm 16:09 Cloudy with Light Rain 52 11 48 9 88 88 WNW 17 28 29.68 1005 10 16.0934 0 0.0254
4:31 pm 16:31 Cloudy with Light Rain 50 10 48 9 94 94 W 17 28 29.68 1005 1.75 2.816345 0 0.0254
4:41 pm 16:41 Cloudy with Light Rain 50 10 48 9 94 94 W 18 30 29.68 1005 2 3.21868 0 0.0254
4:56 pm 16:56 Cloudy with Light Rain 50 10 48 8.9 93 93 W 16 26 29.71 1006 4 6.43736 0.01 0.254
5:56 pm 17:56 Cloudy 48 8.9 46 7.8 93 93 WNW 18 30 29.75 1007 7 11.26538 0 0.0254
7:56 pm 19:56 Cloudy with Light Rain 45 7.2 44 6.7 97 97 WNW 16 26 29.82 1010 2 3.21868 0 0.0254
8:04 pm 20:04 Cloudy with Light Rain 45 7 45 7 100 100 NW 15 24 29.83 1010 1.75 2.816345 0 0.0254
8:13 pm 20:13 Cloudy with Light Rain 45 7 45 7 100 100 NW 14 22 29.85 1011 2 3.21868 0 0.0254
8:26 pm 20:26 Cloudy with Light Rain 45 7 43 6 93 93 WNW 17 28 29.85 1011 6 9.65604 0 0.0254
8:56 pm 20:56 Cloudy with Light Rain 44 6.7 43 6.1 96 96 NW 12 19 29.86 1011 4 6.43736 0 0.0254
9:56 pm 21:56 Cloudy 43 6.1 41 5 93 93 NW 12 19 29.88 1012 8 12.87472 0 0.0254
10:33 pm 22:33 Cloudy 43 6 39 4 87 87 NW 15 24 29.91 1013 10 16.0934 0 0
10:56 pm 22:56 Cloudy with Light Rain 42 5.6 40 4.4 92 92 NW 12 19 29.9 1013 6 9.65604 0 0.0254
11:56 pm 23:56 Cloudy 42 5.6 40 4.4 92 92 WNW 10 17 29.92 1013 10 16.0934 0 0.0254

Powered by AerisWeather